Simultaneous Nadir Overpasses (SNOs) Predictions

Prediction of SNOs between LANDSAT-8 and METOP-B Satellite Orbit:

Table of predicted SNOs for the next 14.0 days since TLE Epoch: 10/28/2023
Index Date (LANDSAT-8) Time (LANDSAT-8) Lat,Lon (LANDSAT-8) SZA (LANDSAT-8 ) Date (METOP-B) Time (METOP-B) Lat,Lon (METOP-B) SZA (METOP-B ) Distance(km) Time Diff (sec)
1 10/29/2023 02:03:59 -81.26, 11.11 82.84 10/29/2023 02:03:50 -81.26, 11.20 82.84 1.56 9
2 10/29/2023 02:53:25 81.26, 178.84 97.19 10/29/2023 02:54:30 81.26, 178.77 97.21 1.19 65
3 10/31/2023 21:38:15 -81.25, 77.36 81.95 10/31/2023 21:38:12 -81.25, 77.51 81.93 2.83 3
4 10/31/2023 22:27:40 81.27,-114.57 98.13 10/31/2023 22:28:51 81.27,-114.55 98.16 0.24 71
5 11/03/2023 16:23:02 81.24, -23.89 98.92 11/03/2023 16:21:53 81.24, -24.02 98.88 2.21 69
6 11/03/2023 17:12:28 -81.26, 144.11 81.02 11/03/2023 17:12:32 -81.26, 144.10 81.02 0.49 4
7 11/06/2023 11:57:16 81.25, 42.61 99.79 11/06/2023 11:56:14 81.24, 42.45 99.74 2.74 62
8 11/06/2023 12:46:42 -81.27,-149.37 80.15 11/06/2023 12:46:53 -81.26,-149.41 80.16 1.01 11
9 11/09/2023 07:31:30 81.24, 108.87 100.57 11/09/2023 07:30:35 81.24, 108.82 100.55 1.04 55



Historial Predications of SNOs between LANDSAT-8 and METOP-B
